Flag for Germany Weather past 2 weeks in Jülich, North Rhine-Westphalia, Germany

Now
59 °F

Passing clouds.


Feels Like: 60 °F
Forecast: 51 / 77 °F
Wind: 3 mph from Northeast

Location: Geilenkirchen Airport

Current Time: Jul 31, 2015 at 11:31:44 AM

Latest Report: Jul 31, 2015 at 10:50 AM


Visibility: N/A

Pressure: 30.15 "Hg

Humidity: 59%

Dew point: 45 °F

Location of JülichLocation

Historic Weather in Jülich — Graph

°F

Jülich temperature yesterday

Maximum temperature yesterday: 64 °F (at 12:50 PM)
Minimum temperature yesterday: 54 °F (at 1:50 AM)
Average temperature yesterday: 57 °F

Past Weeks' High & Low Weather Summary

 TemperatureHumidityPressure
High90 °F (Jul 17, 3:50 PM)100% (Jul 31, 6:50 AM)30.15 "Hg (Jul 31, 6:50 AM)
Low45 °F (Jul 31, 4:50 AM)36% (Jul 17, 3:50 PM)29.56 "Hg (Jul 27, 3:50 AM)
Average66 °F70%29.90 "Hg
* Reported Jul 16 9:50 AM — Jul 31 9:50 AM, Jülich, Weather by CustomWeather, © 2015

Note: Actual official high and low records may vary slightly from our data, if they occured in-between our weather recording intervals... More about our weather records

Advertising

Jülich weather history for previous 24 hours

 ConditionsComfort  
Time TempWeatherWind HumidityBarometerVisibility
9:50 AM
Fri, Jul 31
59 °FPassing clouds.3 mph63%30.15 "HgN/A
8:50 AM57 °FPassing clouds.1 mph72%30.15 "HgN/A
7:50 AM54 °FSunny.1 mph88%30.15 "Hg10 mi
6:50 AM46 °FFog.1 mph100%30.15 "Hg6 mi
5:50 AM45 °FFog.No wind93%30.15 "HgN/A
4:50 AM45 °FFog.2 mph93%30.15 "HgN/A
3:50 AM46 °FFog.1 mph93%30.15 "HgN/A
2:50 AM48 °FFog.No wind94%30.12 "HgN/A
1:50 AM52 °FFog.1 mph94%30.12 "HgN/A
12:50 AM52 °FPassing clouds.2 mph94%30.12 "HgN/A
11:50 PM
Thu, Jul 30
54 °FPassing clouds.6 mph94%30.12 "HgN/A
10:50 PM54 °FClear.3 mph94%30.12 "Hg10 mi
9:50 PM54 °FPartly sunny.5 mph94%30.09 "HgN/A
8:50 PM54 °FBroken clouds.3 mph94%30.09 "HgN/A
7:50 PM54 °FSprinkles. Scattered clouds.5 mph88%30.07 "Hg6 mi
6:50 PM57 °FSprinkles. Scattered clouds.15 mph72%30.07 "Hg5 mi
5:50 PM63 °FBroken clouds.5 mph59%30.04 "HgN/A
4:50 PM63 °FBroken clouds.7 mph59%30.04 "HgN/A
3:50 PM63 °FScattered clouds.14 mph68%30.04 "HgN/A
2:50 PM61 °FScattered showers. Scattered clouds.9 mph63%30.01 "HgN/A
1:50 PM64 °FScattered clouds.9 mph60%30.01 "HgN/A
12:50 PM64 °FScattered clouds.8 mph60%30.01 "HgN/A
11:50 AM61 °FScattered clouds.8 mph68%30.01 "HgN/A
Weather by CustomWeather, © 2015

See weather overviewHow to use our weather pages